Today

Time Wind Dr Wind Spd
mph
Wind Gust
mph
Hum In
%
Humid
%
TempI
F
Temp
F
Raw Bar
in
Tot Rain
in
UV Solar
W/sqm
DailyRain
in
HourRain
in
24HrRain
in
RainRate
in
05/06/26 12:01:19 AM 34 0.0 0.0 48 74 65.6 52.7 30.079 7.26 0.0 0 0.00 0.00 0.00 0.00
05/06/26 12:02:28 AM 38 0.0 0.0 48 75 65.6 52.7 30.081 7.26 0.0 0 0.00 0.00 0.00 0.00
05/06/26 12:03:20 AM 32 0.0 0.0 48 75 65.6 52.7 30.079 7.26 0.0 0 0.00 0.00 0.00 0.00
05/06/26 12:04:30 AM 34 0.0 0.0 48 75 65.6 52.7 30.081 7.26 0.0 0 0.00 0.00 0.00 0.00
05/06/26 12:05:22 AM 39 0.0 0.0 48 75 65.6 52.7 30.078 7.26 0.0 0 0.00 0.00 0.00 0.00
05/06/26 12:06:32 AM 36 0.0 0.0 48 75 65.6 52.7 30.079 7.26 0.0 0 0.00 0.00 0.00 0.00
05/06/26 12:07:26 AM 35 0.0 0.0 48 75 65.6 52.7 30.081 7.26 0.0 0 0.00 0.00 0.00 0.00
05/06/26 12:08:18 AM 38 0.0 0.0 48 75 65.7 52.7 30.081 7.26 0.0 0 0.00 0.00 0.00 0.00
05/06/26 12:09:19 AM 38 0.0 0.0 48 75 65.6 52.7 30.083 7.26 0.0 0 0.00 0.00 0.00 0.00
05/06/26 12:10:29 AM 38 0.0 1.0 48 75 65.6 52.7 30.083 7.26 0.0 0 0.00 0.00 0.00 0.00
05/06/26 12:11:21 AM 31 0.0 1.0 48 75 65.6 52.7 30.084 7.26 0.0 0 0.00 0.00 0.00 0.00
05/06/26 12:12:36 AM 38 0.0 1.0 48 75 65.7 52.6 30.085 7.26 0.0 0 0.00 0.00 0.00 0.00
05/06/26 12:13:31 AM 38 0.0 1.0 48 75 65.7 52.6 30.085 7.26 0.0 0 0.00 0.00 0.00 0.00
05/06/26 12:14:23 AM 32 0.0 1.0 48 75 65.6 52.6 30.085 7.26 0.0 0 0.00 0.00 0.00 0.00
05/06/26 12:15:30 AM 32 0.0 1.0 48 75 65.6 52.6 30.082 7.26 0.0 0 0.00 0.00 0.00 0.00
05/06/26 12:16:21 AM 38 0.0 1.0 48 75 65.6 52.6 30.085 7.26 0.0 0 0.00 0.00 0.00 0.00
05/06/26 12:17:34 AM 35 1.0 1.0 48 75 65.7 52.6 30.083 7.26 0.0 0 0.00 0.00 0.00 0.00
05/06/26 12:18:26 AM 38 0.0 1.0 48 75 65.7 52.6 30.082 7.26 0.0 0 0.00 0.00 0.00 0.00
05/06/26 12:19:18 AM 38 0.0 1.0 48 75 65.6 52.5 30.083 7.26 0.0 0 0.00 0.00 0.00 0.00
05/06/26 12:20:31 AM 38 0.0 1.0 48 75 65.7 52.6 30.080 7.26 0.0 0 0.00 0.00 0.00 0.00
05/06/26 12:21:16 AM 38 0.0 1.0 48 75 65.7 52.6 30.080 7.26 0.0 0 0.00 0.00 0.00 0.00
05/06/26 12:22:29 AM 38 0.0 1.0 48 75 65.7 52.5 30.082 7.26 0.0 0 0.00 0.00 0.00 0.00
05/06/26 12:23:21 AM 32 0.0 1.0 48 75 65.7 52.5 30.082 7.26 0.0 0 0.00 0.00 0.00 0.00
05/06/26 12:24:37 AM 35 0.0 1.0 48 75 65.7 52.5 30.081 7.26 0.0 0 0.00 0.00 0.00 0.00
05/06/26 12:25:29 AM 36 0.0 1.0 48 75 65.7 52.5 30.082 7.26 0.0 0 0.00 0.00 0.00 0.00
05/06/26 12:26:35 AM 36 0.0 1.0 48 75 65.7 52.4 30.082 7.26 0.0 0 0.00 0.00 0.00 0.00
05/06/26 12:27:27 AM 32 0.0 1.0 48 75 65.7 52.4 30.081 7.26 0.0 0 0.00 0.00 0.00 0.00
05/06/26 12:28:19 AM 38 0.0 1.0 48 75 65.7 52.4 30.082 7.26 0.0 0 0.00 0.00 0.00 0.00
05/06/26 12:29:32 AM 35 0.0 1.0 48 75 65.7 52.4 30.080 7.26 0.0 0 0.00 0.00 0.00 0.00
05/06/26 12:30:23 AM 38 0.0 1.0 48 75 65.7 52.4 30.081 7.26 0.0 0 0.00 0.00 0.00 0.00
05/06/26 12:31:30 AM 39 0.0 1.0 48 75 65.7 52.3 30.081 7.26 0.0 0 0.00 0.00 0.00 0.00
05/06/26 12:32:22 AM 38 0.0 1.0 48 76 65.7 52.3 30.080 7.26 0.0 0 0.00 0.00 0.00 0.00
05/06/26 12:33:35 AM 38 0.0 1.0 48 76 65.7 52.3 30.080 7.26 0.0 0 0.00 0.00 0.00 0.00
05/06/26 12:34:27 AM 38 0.0 1.0 48 76 65.7 52.3 30.080 7.26 0.0 0 0.00 0.00 0.00 0.00
05/06/26 12:35:18 AM 32 0.0 1.0 48 76 65.7 52.2 30.081 7.26 0.0 0 0.00 0.00 0.00 0.00
05/06/26 12:36:31 AM 36 0.0 1.0 48 76 65.7 52.2 30.081 7.26 0.0 0 0.00 0.00 0.00 0.00
05/06/26 12:37:17 AM 30 0.0 1.0 48 76 65.7 52.2 30.081 7.26 0.0 0 0.00 0.00 0.00 0.00
05/06/26 12:38:30 AM 35 0.0 1.0 48 76 65.7 52.1 30.080 7.26 0.0 0 0.00 0.00 0.00 0.00
05/06/26 12:39:22 AM 38 0.0 1.0 48 76 65.7 52.1 30.082 7.26 0.0 0 0.00 0.00 0.00 0.00
05/06/26 12:40:35 AM 38 0.0 1.0 48 76 65.7 52.1 30.079 7.26 0.0 0 0.00 0.00 0.00 0.00
05/06/26 12:41:26 AM 39 0.0 1.0 48 76 65.7 52.1 30.078 7.26 0.0 0 0.00 0.00 0.00 0.00
05/06/26 12:42:33 AM 38 0.0 1.0 48 76 65.7 52.0 30.079 7.26 0.0 0 0.00 0.00 0.00 0.00
05/06/26 12:43:25 AM 35 0.0 1.0 48 76 65.7 52.0 30.078 7.26 0.0 0 0.00 0.00 0.00 0.00
05/06/26 12:44:17 AM 35 0.0 1.0 48 76 65.7 52.0 30.078 7.26 0.0 0 0.00 0.00 0.00 0.00
05/06/26 12:45:30 AM 38 0.0 1.0 48 76 65.7 52.0 30.077 7.26 0.0 0 0.00 0.00 0.00 0.00
05/06/26 12:46:21 AM 38 0.0 1.0 48 76 65.7 51.9 30.078 7.26 0.0 0 0.00 0.00 0.00 0.00
05/06/26 12:47:31 AM 34 0.0 1.0 48 76 65.7 51.9 30.080 7.26 0.0 0 0.00 0.00 0.00 0.00
05/06/26 12:48:23 AM 38 0.0 1.0 48 76 65.7 51.9 30.079 7.26 0.0 0 0.00 0.00 0.00 0.00
05/06/26 12:49:32 AM 36 0.0 1.0 48 76 65.7 51.9 30.078 7.26 0.0 0 0.00 0.00 0.00 0.00
05/06/26 12:50:27 AM 30 0.0 1.0 48 76 65.7 51.9 30.079 7.26 0.0 0 0.00 0.00 0.00 0.00
05/06/26 12:51:19 AM 37 0.0 1.0 48 76 65.8 51.8 30.079 7.26 0.0 0 0.00 0.00 0.00 0.00
05/06/26 12:52:32 AM 37 0.0 1.0 48 76 65.7 51.8 30.079 7.26 0.0 0 0.00 0.00 0.00 0.00
05/06/26 12:53:18 AM 34 0.0 1.0 48 76 65.7 51.8 30.076 7.26 0.0 0 0.00 0.00 0.00 0.00
05/06/26 12:54:30 AM 36 0.0 1.0 48 76 65.7 51.8 30.078 7.26 0.0 0 0.00 0.00 0.00 0.00
05/06/26 12:55:22 AM 35 0.0 1.0 48 76 65.8 51.8 30.079 7.26 0.0 0 0.00 0.00 0.00 0.00
05/06/26 12:56:35 AM 36 0.0 1.0 48 77 65.7 51.8 30.078 7.26 0.0 0 0.00 0.00 0.00 0.00
05/06/26 12:57:27 AM 38 0.0 1.0 48 77 65.8 51.8 30.076 7.26 0.0 0 0.00 0.00 0.00 0.00
05/06/26 12:58:37 AM 38 0.0 1.0 48 77 65.8 51.8 30.076 7.26 0.0 0 0.00 0.00 0.00 0.00
05/06/26 12:59:25 AM 34 0.0 1.0 48 77 65.8 51.8 30.076 7.26 0.0 0 0.00 0.00 0.00 0.00
05/06/26 1:00:20 AM 35 0.0 1.0 48 77 65.8 51.8 30.075 7.26 0.0 0 0.00 0.00 0.00 0.00
05/06/26 1:01:30 AM 35 0.0 1.0 48 77 65.8 51.7 30.076 7.26 0.0 0 0.00 0.00 0.00 0.00
05/06/26 1:02:22 AM 36 0.0 1.0 48 77 65.8 51.8 30.076 7.26 0.0 0 0.00 0.00 0.00 0.00
05/06/26 1:03:28 AM 38 0.0 1.0 48 77 65.8 51.8 30.076 7.26 0.0 0 0.00 0.00 0.00 0.00
05/06/26 1:04:20 AM 37 0.0 1.0 48 77 65.8 51.8 30.075 7.26 0.0 0 0.00 0.00 0.00 0.00
05/06/26 1:05:33 AM 38 0.0 1.0 48 77 65.8 51.8 30.075 7.26 0.0 0 0.00 0.00 0.00 0.00
05/06/26 1:06:22 AM 32 0.0 1.0 48 77 65.8 51.7 30.076 7.26 0.0 0 0.00 0.00 0.00 0.00
05/06/26 1:07:35 AM 36 0.0 1.0 48 77 65.8 51.7 30.076 7.26 0.0 0 0.00 0.00 0.00 0.00
05/06/26 1:08:27 AM 38 0.0 1.0 48 78 65.8 51.7 30.076 7.26 0.0 0 0.00 0.00 0.00 0.00
05/06/26 1:09:15 AM 37 0.0 1.0 48 78 65.8 51.7 30.077 7.26 0.0 0 0.00 0.00 0.00 0.00
05/06/26 1:10:28 AM 37 0.0 1.0 48 78 65.8 51.7 30.077 7.26 0.0 0 0.00 0.00 0.00 0.00
05/06/26 1:11:20 AM 38 0.0 1.0 48 78 65.8 51.7 30.080 7.26 0.0 0 0.00 0.00 0.00 0.00
05/06/26 1:12:33 AM 34 0.0 1.0 48 78 65.8 51.7 30.078 7.26 0.0 0 0.00 0.00 0.00 0.00
05/06/26 1:13:25 AM 38 0.0 1.0 48 78 65.8 51.8 30.080 7.26 0.0 0 0.00 0.00 0.00 0.00
05/06/26 1:14:34 AM 36 0.0 1.0 48 78 65.8 51.8 30.076 7.26 0.0 0 0.00 0.00 0.00 0.00
05/06/26 1:15:26 AM 34 0.0 1.0 48 78 65.8 51.8 30.079 7.26 0.0 0 0.00 0.00 0.00 0.00
05/06/26 1:16:18 AM 38 0.0 1.0 48 78 65.8 51.8 30.075 7.26 0.0 0 0.00 0.00 0.00 0.00
05/06/26 1:17:28 AM 38 0.0 1.0 48 78 65.8 51.8 30.077 7.26 0.0 0 0.00 0.00 0.00 0.00
05/06/26 1:18:19 AM 32 0.0 1.0 48 78 65.8 51.8 30.077 7.26 0.0 0 0.00 0.00 0.00 0.00
05/06/26 1:19:29 AM 38 0.0 1.0 48 78 65.9 51.8 30.072 7.26 0.0 0 0.00 0.00 0.00 0.00
05/06/26 1:20:21 AM 36 0.0 1.0 48 78 65.8 51.8 30.072 7.26 0.0 0 0.00 0.00 0.00 0.00
05/06/26 1:21:34 AM 30 0.0 1.0 48 78 65.8 51.8 30.073 7.26 0.0 0 0.00 0.00 0.00 0.00
05/06/26 1:22:23 AM 37 0.0 1.0 48 78 65.8 51.8 30.075 7.26 0.0 0 0.00 0.00 0.00 0.00
05/06/26 1:23:35 AM 34 0.0 1.0 48 78 65.9 51.8 30.076 7.26 0.0 0 0.00 0.00 0.00 0.00

University Police wind advisory reference

For campus closure information please call the campus Emergency Hotline at (909) 537-5999

© All rights reserved. Unauthorized duplication or distribution is prohibited

Never base important decisions on this or any weather information obtained from the Internet

California State University, San Bernardino
5500 University Parkway, San Bernardino, CA. 92407
Phone: (909) 537-5108, Email: Weather Webmaster
Last Updated: